Marion, IN

6:23 AM EST on February 18, 2018 (GMT -0500)
Marion Municipal

Weather History for KMZZ - October, 2011

Change the Weather History Date:

Tuesday, October 18, 2011

  Actual Average (KMIE) Record (KMIE)
Temperature  
Mean Temperature 46 °F -  
Max Temperature 50 °F 61 °F 82 °F (1965)
Min Temperature 43 °F 39 °F 27 °F (2015)
Degree Days  
Heating Degree Days 18    
Moisture  
Dew Point 37 °F    
Average Humidity 74    
Maximum Humidity 80    
Minimum Humidity 47    
Precipitation  
Precipitation 0.19 in - - ()
Sea Level Pressure  
Sea Level Pressure 29.83 in    
Wind  
Wind Speed 0 mph (North)    
Max Wind Speed 0 mph    
Max Gust Speed -    
Visibility 8 miles    
Events Rain    
Averages and records for this station are not official NWS values.
T = Trace of Precipitation, MM = Missing Value Source: NWS Daily Summary

Daily Weather History Graph

Daily Weather History Graph

Search for Another Location

Airport or City:

Trip Planner

Search our weather history database for the weather conditions in past years. The results will help you decide how hot, cold, wet, or windy it might be!

Date:

Astronomy

Oct. 18, 2011 Rise Set
Actual Time 7:56 AM EDT 6:58 PM EDT
Civil Twilight 7:29 AM EDT 7:26 PM EDT
Nautical Twilight 6:57 AM EDT 7:57 PM EDT
Astronomical Twilight 6:25 AM EDT 8:29 PM EDT
Moon 11:38 PM EDT 1:47 PM EDT
Length of Visible Light 11h 57m
Length of Day
11h 01m
Waning Gibbous, 65% of the Moon is Illuminated
Oct 18
Waning Gibbous
Oct 19
Last Quarter
Oct 26
New
Nov 2
First Quarter
Nov 10
Full

Hourly Weather History & Observations

Time (EDT) Temp. Dew Point Humidity Pressure Visibility Wind Dir Wind Speed Gust Speed Precip Events Conditions
12:15 AM 50.0 °F 30.2 °F 47% 29.89 in 10.0 mi Calm Calm - N/A   Overcast
12:35 AM 48.2 °F 33.6 °F 57% 29.89 in 10.0 mi Calm Calm - N/A   Overcast
12:55 AM 46.6 °F 35.6 °F 66% 29.88 in 10.0 mi Calm Calm - N/A   Overcast
1:15 AM 45.9 °F 36.3 °F 69% 29.88 in 10.0 mi Calm Calm - N/A   Overcast
1:35 AM 45.5 °F 36.7 °F 71% 29.88 in 10.0 mi Calm Calm - N/A   Overcast
1:55 AM 45.3 °F 36.7 °F 72% 29.87 in 10.0 mi Calm Calm - N/A Rain Light Rain
2:15 AM 45.0 °F 36.9 °F 73% 29.86 in 10.0 mi Calm Calm - 0.01 in Rain Light Rain
2:35 AM 44.6 °F 37.2 °F 75% 29.86 in 10.0 mi Calm Calm - 0.01 in   Overcast
2:55 AM 44.6 °F 37.4 °F 76% 29.86 in 10.0 mi Calm Calm - 0.01 in   Overcast
3:15 AM 44.6 °F 37.4 °F 76% 29.85 in 10.0 mi Calm Calm - N/A   Overcast
3:35 AM 44.4 °F 37.4 °F 76% 29.85 in 10.0 mi Calm Calm - N/A   Overcast
3:55 AM 44.2 °F 37.4 °F 77% 29.84 in 10.0 mi Calm Calm - N/A   Overcast
4:15 AM 44.2 °F 37.4 °F 77% 29.84 in 10.0 mi Calm Calm - N/A   Overcast
4:35 AM 44.1 °F 37.4 °F 77% 29.83 in 10.0 mi Calm Calm - N/A   Overcast
5:15 AM 43.9 °F 37.4 °F 78% 29.83 in 10.0 mi Calm Calm - N/A   Overcast
5:35 AM 43.9 °F 37.4 °F 78% 29.82 in 10.0 mi Calm Calm - N/A   Overcast
5:55 AM 43.9 °F 37.4 °F 78% 29.82 in 10.0 mi Calm Calm - N/A   Overcast
6:15 AM 44.1 °F 37.8 °F 78% 29.83 in 10.0 mi Calm Calm - N/A   Overcast
6:35 AM 44.1 °F 37.8 °F 78% 29.84 in 10.0 mi Calm Calm - N/A   Overcast
6:55 AM 43.9 °F 37.6 °F 78% 29.83 in 10.0 mi Calm Calm - N/A   Overcast
7:15 AM 43.9 °F 37.8 °F 79% 29.84 in 10.0 mi Calm Calm - N/A   Overcast
7:35 AM 44.1 °F 37.8 °F 78% 29.84 in 7.0 mi Calm Calm - N/A   Overcast
7:55 AM 44.1 °F 37.6 °F 78% 29.84 in 7.0 mi Calm Calm - N/A Rain Light Rain
8:15 AM 43.9 °F 37.6 °F 78% 29.84 in 7.0 mi Calm Calm - N/A   Overcast
8:35 AM 43.9 °F 37.8 °F 79% 29.84 in 4.0 mi Calm Calm - 0.01 in   Haze
8:55 AM 43.9 °F 37.9 °F 80% 29.83 in 4.0 mi Calm Calm - 0.02 in Rain Light Rain
9:15 AM 44.1 °F 38.3 °F 80% 29.84 in 4.0 mi Calm Calm - 0.01 in Rain Light Rain
9:35 AM 44.1 °F 38.1 °F 80% 29.83 in 4.0 mi Calm Calm - 0.03 in Rain Light Rain
9:55 AM 44.2 °F 38.3 °F 80% 29.84 in 5.0 mi Calm Calm - 0.03 in Rain Light Rain
10:15 AM 44.2 °F 37.8 °F 78% 29.84 in 7.0 mi Calm Calm - N/A   Overcast
10:35 AM 44.8 °F 37.8 °F 76% 29.84 in 7.0 mi Calm Calm - N/A   Overcast
10:55 AM 44.8 °F 37.6 °F 76% 29.84 in 10.0 mi Calm Calm - N/A   Overcast
11:15 AM 45.1 °F 37.6 °F 75% 29.84 in 10.0 mi Calm Calm - N/A Rain Light Rain
11:35 AM 45.5 °F 36.9 °F 72% 29.83 in 7.0 mi Calm Calm - N/A   Overcast
11:55 AM 45.7 °F 36.7 °F 71% 29.83 in 7.0 mi Calm Calm - 0.01 in Rain Light Rain
12:15 PM 46.2 °F 36.9 °F 70% 29.84 in 10.0 mi Calm Calm - N/A   Overcast
12:35 PM 46.4 °F 36.7 °F 69% 29.83 in 10.0 mi Calm Calm - N/A Rain Light Rain
12:55 PM 46.2 °F 36.0 °F 67% 29.81 in 10.0 mi Calm Calm - N/A   Overcast
1:15 PM 46.4 °F 36.0 °F 67% 29.81 in 7.0 mi Calm Calm - N/A   Overcast
1:35 PM 46.4 °F 37.4 °F 71% 29.82 in 7.0 mi Calm Calm - N/A   Overcast
1:55 PM 46.4 °F 37.2 °F 70% 29.83 in 4.0 mi Calm Calm - 0.01 in Rain Light Rain
2:15 PM 46.4 °F 36.9 °F 69% 29.81 in 10.0 mi Calm Calm - N/A   Overcast
2:35 PM 46.4 °F 37.2 °F 70% 29.79 in 10.0 mi Calm Calm - N/A   Overcast
2:55 PM 46.6 °F 37.8 °F 71% 29.77 in 7.0 mi Calm Calm - N/A   Overcast
3:15 PM 46.4 °F 38.7 °F 74% 29.76 in 7.0 mi Calm Calm - 0.01 in Rain Light Rain
3:35 PM 46.2 °F 37.9 °F 73% 29.78 in 7.0 mi Calm Calm - 0.01 in   Overcast
3:55 PM 45.9 °F 37.0 °F 71% 29.79 in 7.0 mi Calm Calm - 0.01 in Rain Light Rain
4:15 PM 45.7 °F 37.0 °F 72% 29.77 in 10.0 mi Calm Calm - N/A   Overcast
4:35 PM 45.7 °F 37.4 °F 73% 29.77 in 10.0 mi Calm Calm - N/A   Overcast
4:55 PM 45.5 °F 37.6 °F 74% 29.78 in 5.0 mi Calm Calm - 0.01 in Rain Light Rain
5:15 PM 45.5 °F 38.1 °F 75% 29.87 in 7.0 mi Calm Calm - 0.01 in Rain Light Rain
5:35 PM 45.0 °F 38.3 °F 77% 29.81 in 2.5 mi Calm Calm - 0.06 in Rain Light Rain
5:55 PM 44.8 °F 38.5 °F 79% 29.79 in 5.0 mi Calm Calm - 0.07 in Rain Light Rain
6:15 PM 44.4 °F 37.0 °F 75% 29.79 in 4.0 mi Calm Calm - 0.01 in   Haze
6:35 PM 44.1 °F 36.7 °F 75% 29.78 in 7.0 mi Calm Calm - 0.02 in   Overcast
6:55 PM 44.1 °F 36.5 °F 75% 29.79 in 5.0 mi Calm Calm - 0.02 in Rain Light Rain
7:15 PM 44.1 °F 37.2 °F 77% 29.79 in 7.0 mi Calm Calm - N/A   Overcast
7:35 PM 43.9 °F 37.4 °F 78% 29.78 in 7.0 mi Calm Calm - N/A   Overcast
7:55 PM 43.7 °F 37.6 °F 79% 29.77 in 7.0 mi Calm Calm - N/A   Overcast
8:15 PM 43.7 °F 37.4 °F 78% 29.79 in 10.0 mi Calm Calm - N/A   Overcast
8:35 PM 43.7 °F 36.7 °F 76% 29.79 in 10.0 mi Calm Calm - N/A   Overcast
8:55 PM 43.3 °F 36.5 °F 77% 29.79 in 10.0 mi Calm Calm - N/A   Overcast
9:15 PM 43.3 °F 36.3 °F 76% 29.78 in 10.0 mi Calm Calm - N/A   Overcast
9:35 PM 43.3 °F 36.1 °F 76% 29.77 in 10.0 mi Calm Calm - N/A   Overcast
9:55 PM 43.3 °F 36.0 °F 75% 29.77 in 10.0 mi Calm Calm - N/A   Overcast
10:15 PM 43.3 °F 36.3 °F 76% 29.76 in 10.0 mi Calm Calm - N/A   Overcast
10:35 PM 43.7 °F 36.3 °F 75% 29.76 in 10.0 mi Calm Calm - N/A   Overcast
10:55 PM 43.7 °F 36.1 °F 75% 29.75 in 10.0 mi Calm Calm - N/A   Overcast
11:15 PM 43.7 °F 36.1 °F 75% 29.76 in 10.0 mi Calm Calm - N/A   Overcast
11:35 PM 43.7 °F 36.5 °F 76% 29.74 in 7.0 mi Calm Calm - N/A Rain Light Rain
11:55 PM 43.7 °F 36.7 °F 76% 29.73 in 10.0 mi Calm Calm - N/A   Overcast